Home   Weather   Mount Temple   Past weeks
Flag for Canada

Past Weather in Mount Temple, British Columbia, Canada — Yesterday and Last 2 Weeks

Now
57 °F

Overcast.


Feels Like: 56 °F
Forecast: 63 / 54 °F
Wind: 6 mph from Southeast

Location: Prince Rupert

Current Time: Jun 15, 2019 at 8:29:56 pm

Latest Report: Jun 15, 2019 at 7:31 pm


Visibility: 9 mi

Pressure: 30.04 "Hg

Humidity: 94%

Dew Point: 55 °F

Location of Mount TempleLocation

Past Weather in Mount Temple — Graph

°F

Mount Temple Temperature Yesterday

Maximum temperature yesterday: 59 °F (at 2:00 pm)
Minimum temperature yesterday: 50 °F (at 3:55 am)
Average temperature yesterday: 54 °F

High & Low Weather Summary for the Past Weeks

 TemperatureHumidityPressure
High66 °F (Jun 12, 1:00 pm)100% (May 31, 7:00 pm)30.33 "Hg (May 31, 7:00 pm)
Low43 °F (Jun 5, 6:00 am)55% (Jun 5, 4:00 pm)29.75 "Hg (Jun 3, 2:00 am)
Average52 °F90%30.08 "Hg
* Reported May 31 7:00 pm — Jun 15 7:00 pm, Mount Temple. Weather by CustomWeather, © 2019

Note: Actual official high and low records may vary slightly from our data, if they occured in-between our weather recording intervals... More about our weather records

Advertising

Mount Temple Weather History for the Previous 24 Hours

Scroll right to see more
 ConditionsComfort  
Time TempWeatherWind HumidityBarometerVisibility
7:00 pm
Sat, Jun 15
55 °FLight rain. Overcast.6 mph94%30.05 "Hg9 mi
6:32 pm55 °FLight rain. More clouds than sun.8 mph94%30.05 "Hg9 mi
6:00 pm55 °FOvercast.5 mph94%30.06 "Hg9 mi
5:55 pm55 °FOvercast.5 mph94%30.06 "Hg9 mi
5:00 pm55 °FLight rain. Mostly cloudy.3 mph94%30.07 "Hg9 mi
4:00 pm57 °FLight rain. Overcast.6 mph82%30.06 "Hg9 mi
3:25 pm59 °FMostly cloudy.5 mph72%30.06 "Hg9 mi
2:57 pm59 °FLight rain. Overcast.3 mph72%30.06 "Hg9 mi
2:33 pm59 °FLight rain. Overcast.3 mph72%30.06 "Hg9 mi
2:00 pm59 °FOvercast.2 mph72%30.07 "Hg9 mi
1:00 pm57 °FOvercast.3 mph77%30.07 "Hg9 mi
12:00 pm57 °FOvercast.3 mph72%30.07 "Hg9 mi
11:00 am57 °FMostly cloudy.3 mph72%30.07 "Hg9 mi
10:00 am57 °FBroken clouds.3 mph77%30.07 "Hg9 mi
9:00 am55 °FOvercast.2 mph82%30.07 "Hg9 mi
8:00 am54 °FSunny.2 mph88%30.08 "Hg9 mi
7:00 am50 °FSunny.3 mph100%30.08 "Hg9 mi
6:00 am50 °FSunny.3 mph94%30.09 "Hg9 mi
5:00 am48 °FPassing clouds.3 mph100%30.09 "Hg9 mi
4:00 am48 °FClear.5 mph100%30.09 "Hg9 mi
3:00 am48 °FClear.5 mph100%30.09 "Hg9 mi
2:00 am48 °FClear.2 mph94%30.10 "Hg9 mi
1:00 am50 °FClear.No wind94%30.10 "Hg9 mi
12:00 am50 °FClear.No wind94%30.10 "Hg9 mi
11:00 pm
Fri, Jun 14
52 °FClear.2 mph88%30.11 "Hg9 mi
10:00 pm54 °FSunny.3 mph82%30.11 "Hg9 mi
9:00 pm55 °FPassing clouds.6 mph82%30.11 "Hg9 mi
8:00 pm59 °FScattered clouds.3 mph68%30.10 "Hg9 mi
Weather by CustomWeather, © 2019

See weather overview